Location: Newark
(6.0333°S, 36.1333°E)
Time: 17:40:28
(UTC+00:00)

ISS - Pass Details

Date: 22 November 2019
Orbit: 411 x 421 km, 51.6° (Epoch: 12 December)

Event Time Altitude Azimuth Distance (km) Brightness Sun altitude
Exits shadow 02:34:48 10° 269° (W) 1,487 -1.6 -8.8°
Maximum altitude 02:36:48 15° 232° (SW) 1,221 -1.7 -8.3°
Drops below altitude 10° 02:38:51 10° 195° (SSW) 1,496 -0.9 -7.8°
Sets 02:41:36 0° 170° (S) 2,361 0.5 -7.2°
